Regional Weather Roundup
Issued by NWS Northern Indiana

Home | Current Version | Previous Version | Text Only | Print | Product List | Glossary Off
Versions: 1 2 3 4 5 6 7 8 9 10 11 12 13 14 15 16 17 18 19 20 21 22 23 24 25 26 27 28 29 30 31 32 33 34 35 36 37 38 39 40 41 42 43 44 45 46 47 48 49 50

000
ASUS43 KIWX 230510
RWRIWX

KIWX WEATHER ROUNDUP
NATIONAL WEATHER SERVICE NORTHERN INDIANA
100 AM EDT WED JUL 23 2014

NOTE: "FAIR" INDICATES FEW OR NO CLOUDS BELOW 12,000 FEET WITH NO
SIGNIFICANT WEATHER AND/OR OBSTRUCTIONS TO VISIBILITY.

* THESE STATIONS ARE NOT UNDER NWS QUALITY CONTROL. THEY ALSO MAY NOT
  REPORT WEATHER SUCH AS PRECIPITATION OR FOG.

INZ001>027-230600-
NORTHERN INDIANA

CITY           SKY/WX    TMP DP  RH WIND       PRES   REMARKS
GARY*          PTCLDY    81  75  81 S3        29.96S
VALPARAISO     PTCLDY    76  71  85 SW8       29.99R
MICHIGAN CITY* PTCLDY    77  70  78 SW5       29.98S
LAPORTE*       CLEAR     74  70  86 SW7       29.99S
KNOX*          CLOUDY    77  69  75 SW6       29.99R
SOUTH BEND     PTCLDY    78  70  76 SW9       29.98F
GOSHEN         PTCLDY    77  69  76 S5        29.99S
MONTICELLO*    CLEAR     73  70  91 SW6       30.00R
LOGANSPORT*    PTCLDY    72  68  88 SW6       30.02R
ROCHESTER*     MOCLDY    79  70  73 SW6       30.02R
WARSAW*        MOCLDY    77  70  78 SW7       30.00S
ANGOLA*        CLOUDY    79  70  73 W5        30.00R
FORT WAYNE     MOCLDY    77  69  76 SW9       30.02R
HUNTINGTON*    MOCLDY    76  69  81 SW3       30.01R
PERU/GRISSOM   CLEAR     73  73 100 SW7       30.02R
MARION*        CLEAR     71  67  87 SW3       30.03R FOG

$$
INZ028>050-230600-
CENTRAL INDIANA

CITY           SKY/WX    TMP DP  RH WIND       PRES   REMARKS
LAFAYETTE      PTCLDY    73  70  90 W3        30.00S
KOKOMO*        CLEAR     75  70  83 SW8       30.02R
MUNCIE*        PTCLDY    76  66  71 SW5       30.03R
INDIANAPOLIS   PTCLDY    73  68  84 SW5       30.03R

$$
MIZ043>046-050>051-056>058-064>065-071>073-077>080-230600-
SOUTHWEST LOWER MICHIGAN

CITY           SKY/WX    TMP DP  RH WIND       PRES   REMARKS
BATTLE CREEK   CLOUDY    77  61  57 W18G24    29.99R
BENTON HARBOR  TSTM      72  65  78 NW13G21   29.99R
COLDWATER*     MOCLDY    78  70  77 W6        29.99R
HILLSDALE*     CLOUDY    79  69  72 W7        30.00R
HOLLAND        CLOUDY    70  66  87 W6        29.99R
GRAND RAPIDS   CLOUDY    71  66  84 W10       29.98R
KALAMAZOO      TSTM      72  62  71 W20G36    30.01F
STURGIS*       PTCLDY    75  72  88 W6        29.99S
THREE RIVERS*  FAIR      77  72  84 N9        30.04R

$$
OHZ001>008-015>018-024>025-230600-
NORTHWEST OHIO

CITY           SKY/WX    TMP DP  RH WIND       PRES   REMARKS
WAUSEON*       FAIR      77  68  73 SW7       29.99R
DEFIANCE       CLOUDY    79  67  66 SW5       29.99S
FINDLAY        CLEAR     73  66  78 SW8       30.00R
TOLEDO EXPRESS CLOUDY    78  67  68 SW7       29.98R
TOLEDO METCALF MOCLDY    77  66  68 SW8       29.98R
LIMA           CLEAR     76  67  73 SW6       30.03R

$$
&&


USA.gov is the U.S. government's official web portal to all federal, state and local government web resources and services.